Вернуться в каталог

STARLINK-32535

АктивенСвязьVLEO
NORAD 62119·PAYLOAD·🇺🇸 United States

Запущен Nov 27, 2024 с Cape Canaveral Space Force Station

Loading…

Ближайшие Пролёты (ближайшие 24 часа)

TLE

СвежийSource: CelesTrak SupGP

Эпоха: Sep 15, 2026, 03:16 UTC

1 62119C 24222F   26258.13659722  .00055957  00000+0  20266-2 0  2585
2 62119  42.9999 143.0508 0001405 276.8839 307.4187 15.27552739    14

Отслеживайте STARLINK-32535 в реальном времени с AllMySat

Download on the App Store